FENGYUN 1C DEB

Satellite information

Favourite Embed

Satellite Type and Status

DEBRISIN ORBIT

Key statistics

Satellite FENGYUN 1C DEB at a glance.

Uptime

9715

Days in orbit

Revolutions

≈ 14.0

Per day

Orbit

SSO

Sun Synchronous Orbit

Inclination

98.6

Latest

Satellite identification and parameters

Extended collection of information and parameters for FENGYUN 1C DEB.

Object identification

Identified? True

Debris? True

Object name: FENGYUN 1C DEB

International designator: 1999-025CDP

Object number (NORAD): 31716

Object ID (CCSDS): 31716

Country: PEOPLES REPUBLIC OF CHINA (PRC)

Current information (Y/N): Y

RCS size: SMALL

Orbital parameters

Period: 102.593 minutes

Inclination: 98.557 deg

SMA: 7259.456 km

Apoapsis: 976.557 km

Periapsis: 786.086 km

RAAN: 246.1737 deg

Eccentricy: 0.01311886

Argument of periapsis: 89.7462 deg

Mean anomaly: 61.3991 deg

Mean motion: 14.03610493 rev/day

Mean motion (dot): 0.00003346 rev/day2

B* drag term: 0.0019978631 1/REarth

Two-line elements (TLE)

Creation date: Dec. 13, 2025, 5:47 p.m.

Reference frame: TEME

Reference center: EARTH

Epoch: Dec. 13, 2025, 5:22 a.m. UTC

TLE line 0: 0 FENGYUN 1C DEB

TLE line 1: 1 31716U 99025CDP 25347.22402681 .00003346 00000-0 19979-2 0 9992

TLE line 2: 2 31716 98.5570 246.1737 0131189 89.7462 61.3991 14.03610493941265

Live tracking on map

Real-time ground track for satellite FENGYUN 1C DEB.

In-orbit conjunctions

A list of the most updated potential collisions computed for object FENGYUN 1C DEB.

Target Orbit TCA Probability of collision Miss distance Type
SL-14 DEB LEO 2025-10-18 17:08:20 0.0001922127 167.0 (m) DEBRIS
CZ-6A DEB LEO 2024-12-10 05:02:07 0.0005769141 239.0 (m) DEBRIS

Associated space launch

Chinese polar orbiting meteorological satellite

FENGYUN 1C DEB was lifted into orbit during the mission ‘Long March 4B | Feng Yun 1C’, on board a Long March 4B space rocket.

The launch took place on May 10, 1999, 1:33 a.m. from Launch Complex 7.

For more information about the launch, click the button.

Launch to space Long March 4B | Feng Yun 1C
Long March 4B | Feng Yun 1C

Agency: N/A

Status: Launch Successful

Launch date: May 10, 1999, 1:33 a.m. UTC

Rocket: Long March 4B

Launch pad: Launch Complex 7

Location: Taiyuan Satellite Launch Center, People's Republic of China

...

Latest news about this satellite

There are no fresh news available about this satellite. Check back as we update our databases every day.


Newsletter sign-up

Weekly statistics, charts and insights to help you stay on top of the space industry.